Regional Weather Roundup
Issued by NWS State College, PA

Home | Current Version | Previous Version | Graphics & Text | Print | Product List | Glossary On
Versions: 1 2 3 4 5 6 7 8 9 10 11 12 13 14 15 16 17 18 19 20 21 22 23 24 25 26 27 28 29 30 31 32 33 34 35 36 37 38 39 40 41 42 43 44 45 46 47 48 49 50
000
ASUS41 KCTP 260703
RWRCTP

REGIONAL WEATHER ROUNDUP
NATIONAL WEATHER SERVICE STATE COLLEGE PA
200 AM EST MON JAN 26 2015

Note: "fair" indicates few or no clouds below 12,000 feet with no
significant weather and/or obstructions to visibility.

* = STATION THAT DOES NOT REPORT PRECIPITATION /E.G. RAIN...SNOW...ETC/
    THUNDER OR FOG.

PAZ002>004-007>009-013>016-020>023-029>032-260800-
WESTERN PENNSYLVANIA

CITY           SKY/WX    TMP DP  RH WIND       PRES   REMARKS
ERIE           CLOUDY    17   7  64 NE15      29.90F WCI   2
MEADVILLE      LGT SNOW  17  13  84 NE13      29.80F VSB 1   WCI   4
FRANKLIN*      CLOUDY    19  16  86 NE10      29.79F WCI   8
NEW CASTLE     LGT SNOW  22  20  92 N9        29.79S VSB 1   WCI  12
BEAVER COUNTY  NOT AVBL
BUTLER*        CLOUDY    27  25  93 NE10      29.75F
PITTSBURGH INT LGT SNOW  29  27  92 N7        29.72F FOG
PITTSBURGH     LGT SNOW  31  28  89 N5        29.70F VSB 1
INDIANA*       CLOUDY    30  28  93 E13G20    29.78S FOG
LATROBE        CLOUDY    32  32 100 E6        29.73F
WASHINGTON CO* CLOUDY    30  28  93 CALM      29.72F
$$

PAZ004>006-010>012-017>019-024>028-033>037-041-042-045-046-049>053-260800-
CENTRAL PENNSYLVANIA

CITY           SKY/WX    TMP DP  RH WIND       PRES   REMARKS
BRADFORD       LGT SNOW  13   7  77 E10G17    29.80F WCI   0
DUBOIS         LGT SNOW  22  19  89 E13       29.77S VSB 3/4 WCI  10
CLEARFIELD     LGT SNOW  20  17  88 NE12      29.82F VSB 3/4 WCI   8
JOHNSTOWN      LGT SNOW  28  26  92 E6        29.70F FOG
ALTOONA        LGT SNOW  26  25  96 NE12      29.80S FOG
STATE COLLEGE  LGT SNOW  21  19  91 NE9       29.86S VSB 1   WCI  10
WILLIAMSPORT   FLURRIES  21   9  59 N3        29.96S
SELINSGROVE    LGT SNOW  22  17  81 NE10      29.95S WCI  11
FT INDIANTOWN  LGT SNOW  26  24  89 NE7       29.92R FOG
CAPITAL CITY   LGT SNOW  29  25  85 E13       29.91S VSB 1
HARRISBURG     SNOW      28  25  88 E9        29.90S VSB 1/2
YORK           LGT SNOW  31  30  96 E12       29.87S VSB 3/4
$$

PAZ038>040-043-044-047-048-054-055-060>062-067>071-260800-
EASTERN PENNSYLVANIA

CITY           SKY/WX    TMP DP  RH WIND       PRES   REMARKS
SCRANTON       CLOUDY    19   5  54 NE8       29.94F WCI   9
MOUNT POCONO   CLOUDY    17   4  56 NE8       29.86S WCI   7
ALLENTOWN      CLOUDY    26  14  60 NE10      29.96S
QUAKERTOWN*    NOT AVBL
READING        LGT SNOW  27  23  85 E7        29.94R FOG
LANCASTER      LGT SNOW  28  24  85 E18       29.91R VSB 1
COATESVILLE    LGT SNOW  30  28  93 E7        29.91R
POTTSTOWN      LGT SNOW  25  22  88 E9G18     29.96R FOG
BLUE BELL      CLOUDY    28  27  93 NE7       29.95R
DOYLESTOWN     LGT SNOW  24  20  84 NE8       29.95S FOG
WILLOW GROVE   NOT AVBL
NORTH PHILA    CLOUDY    30  22  72 NE13      29.98S
PHILADELPHIA   FLURRIES  30  26  85 NE12      29.97R
$$


USA.gov is the U.S. government's official web portal to all federal, state and local government web resources and services.